Time,TemperatureF,DewpointF,PressureIn,WindDirection,WindDirectionDegrees,WindSpeedMPH,WindSpeedGustMPH,Humidity,HourlyPrecipIn,Conditions,Clouds,dailyrainin,SoftwareType,DateUTC
2013-04-18 00:08:00,36.8,31.5,30.33,WNW,282,0.0,0.0,81,0.00,,,0.00,LWC V2.10 B1813,2013-04-18 04:08:00,
2013-04-18 00:13:00,36.4,31.4,30.33,WNW,282,0.0,0.0,82,0.00,,,0.00,LWC V2.10 B1813,2013-04-18 04:13:00,
2013-04-18 00:18:00,36.1,31.4,30.33,WNW,286,0.0,1.0,83,0.00,,,0.00,LWC V2.10 B1813,2013-04-18 04:18:00,
2013-04-18 00:23:00,36.1,31.4,30.33,WNW,284,0.0,1.0,83,0.00,,,0.00,LWC V2.10 B1813,2013-04-18 04:23:00,
2013-04-18 00:28:00,35.9,31.2,30.33,WNW,284,0.0,0.0,83,0.00,,,0.00,LWC V2.10 B1813,2013-04-18 04:28:00,
2013-04-18 00:33:00,35.5,30.9,30.33,WNW,286,0.0,1.0,83,0.00,,,0.00,LWC V2.10 B1813,2013-04-18 04:33:00,
2013-04-18 00:38:00,35.1,31.1,30.33,West,277,0.0,0.0,85,0.00,,,0.00,LWC V2.10 B1813,2013-04-18 04:38:00,
2013-04-18 00:43:00,35.1,30.8,30.33,West,277,0.0,0.0,84,0.00,,,0.00,LWC V2.10 B1813,2013-04-18 04:43:00,
2013-04-18 00:48:00,35.1,30.8,30.33,WNW,286,0.0,1.0,84,0.00,,,0.00,LWC V2.10 B1813,2013-04-18 04:48:00,
2013-04-18 01:03:00,34.3,30.3,30.32,WNW,287,0.0,0.0,85,0.00,,,0.00,LWC V2.10 B1813,2013-04-18 05:03:00,
2013-04-18 01:08:00,34.0,30.3,30.32,WNW,287,0.0,1.0,86,0.00,,,0.00,LWC V2.10 B1813,2013-04-18 05:08:00,
2013-04-18 01:13:00,33.8,30.1,30.32,WNW,297,2.0,2.0,86,0.00,,,0.00,LWC V2.10 B1813,2013-04-18 05:13:00,
2013-04-18 01:18:00,33.9,30.2,30.32,West,276,1.0,1.0,86,0.00,,,0.00,LWC V2.10 B1813,2013-04-18 05:18:00,
2013-04-18 01:23:00,33.9,30.2,30.32,WNW,282,0.0,0.0,86,0.00,,,0.00,LWC V2.10 B1813,2013-04-18 05:23:00,
2013-04-18 01:28:00,33.9,30.2,30.32,WNW,282,0.0,0.0,86,0.00,,,0.00,LWC V2.10 B1813,2013-04-18 05:28:00,
2013-04-18 01:33:00,33.5,29.8,30.32,WNW,282,0.0,0.0,86,0.00,,,0.00,LWC V2.10 B1813,2013-04-18 05:33:00,
2013-04-18 01:38:00,33.1,29.7,30.32,WNW,303,2.0,2.0,87,0.00,,,0.00,LWC V2.10 B1813,2013-04-18 05:38:00,
2013-04-18 01:43:00,33.2,29.8,30.32,WNW,302,0.0,0.0,87,0.00,,,0.00,LWC V2.10 B1813,2013-04-18 05:43:00,
2013-04-18 01:48:00,33.2,29.8,30.33,West,272,0.0,0.0,87,0.00,,,0.00,LWC V2.10 B1813,2013-04-18 05:48:00,
2013-04-18 01:58:00,32.6,29.4,30.32,West,272,0.0,0.0,88,0.00,,,0.00,LWC V2.10 B1813,2013-04-18 05:58:00,
2013-04-18 02:03:00,32.3,29.4,30.31,West,273,0.0,0.0,89,0.00,,,0.00,LWC V2.10 B1813,2013-04-18 06:03:00,
2013-04-18 02:08:00,32.2,29.3,30.32,WNW,284,1.0,1.0,89,0.00,,,0.00,LWC V2.10 B1813,2013-04-18 06:08:00,
2013-04-18 02:13:00,32.3,29.4,30.32,WNW,283,1.0,1.0,89,0.00,,,0.00,LWC V2.10 B1813,2013-04-18 06:13:00,
2013-04-18 02:18:00,32.3,29.2,30.32,WNW,282,0.0,0.0,88,0.00,,,0.00,LWC V2.10 B1813,2013-04-18 06:18:00,
2013-04-18 02:23:00,32.1,29.0,30.32,WNW,283,0.0,0.0,88,0.00,,,0.00,LWC V2.10 B1813,2013-04-18 06:23:00,
2013-04-18 02:28:00,31.9,29.0,30.32,WNW,282,0.0,1.0,89,0.00,,,0.00,LWC V2.10 B1813,2013-04-18 06:28:00,
2013-04-18 02:33:00,31.8,28.9,30.33,WNW,284,1.0,1.0,89,0.00,,,0.00,LWC V2.10 B1813,2013-04-18 06:33:00,
2013-04-18 02:38:00,31.8,28.9,30.33,WNW,283,1.0,1.0,89,0.00,,,0.00,LWC V2.10 B1813,2013-04-18 06:38:00,
2013-04-18 02:43:00,31.9,29.0,30.33,WNW,283,1.0,1.0,89,0.00,,,0.00,LWC V2.10 B1813,2013-04-18 06:43:00,
2013-04-18 02:58:00,31.8,28.9,30.33,WNW,286,0.0,0.0,89,0.00,,,0.00,LWC V2.10 B1813,2013-04-18 06:58:00,
2013-04-18 03:03:00,31.5,28.6,30.33,WNW,286,0.0,0.0,89,0.00,,,0.00,LWC V2.10 B1813,2013-04-18 07:03:00,
2013-04-18 03:08:00,31.0,28.4,30.34,WNW,286,0.0,0.0,90,0.00,,,0.00,LWC V2.10 B1813,2013-04-18 07:08:00,
2013-04-18 03:13:00,30.8,28.2,30.34,WNW,286,0.0,0.0,90,0.00,,,0.00,LWC V2.10 B1813,2013-04-18 07:13:00,
2013-04-18 03:18:00,30.7,28.4,30.34,WNW,286,0.0,0.0,91,0.00,,,0.00,LWC V2.10 B1813,2013-04-18 07:18:00,
2013-04-18 03:23:00,30.6,28.3,30.34,WNW,286,0.0,0.0,91,0.00,,,0.00,LWC V2.10 B1813,2013-04-18 07:23:00,
2013-04-18 03:28:00,30.5,28.2,30.35,WNW,288,1.0,1.0,91,0.00,,,0.00,LWC V2.10 B1813,2013-04-18 07:28:00,
2013-04-18 03:33:00,30.5,28.2,30.35,WNW,286,0.0,0.0,91,0.00,,,0.00,LWC V2.10 B1813,2013-04-18 07:33:00,
2013-04-18 03:38:00,30.7,28.4,30.35,WNW,282,1.0,1.0,91,0.00,,,0.00,LWC V2.10 B1813,2013-04-18 07:38:00,
2013-04-18 03:43:00,30.7,28.4,30.35,WNW,283,0.0,0.0,91,0.00,,,0.00,LWC V2.10 B1813,2013-04-18 07:43:00,
2013-04-18 03:53:00,30.4,28.1,30.35,WNW,283,0.0,0.0,91,0.00,,,0.00,LWC V2.10 B1813,2013-04-18 07:53:00,
2013-04-18 03:58:00,30.2,27.9,30.35,WNW,282,0.0,0.0,91,0.00,,,0.00,LWC V2.10 B1813,2013-04-18 07:58:00,
2013-04-18 04:03:00,30.1,28.1,30.35,WNW,283,0.0,0.0,92,0.00,,,0.00,LWC V2.10 B1813,2013-04-18 08:03:00,
2013-04-18 04:08:00,30.0,28.0,30.35,WNW,283,0.0,0.0,92,0.00,,,0.00,LWC V2.10 B1813,2013-04-18 08:08:00,
2013-04-18 04:13:00,29.8,27.8,30.36,WNW,282,0.0,0.0,92,0.00,,,0.00,LWC V2.10 B1813,2013-04-18 08:13:00,
2013-04-18 04:18:00,29.6,27.6,30.36,WNW,283,0.0,0.0,92,0.00,,,0.00,LWC V2.10 B1813,2013-04-18 08:18:00,
2013-04-18 04:23:00,29.5,27.7,30.36,WNW,283,0.0,0.0,93,0.00,,,0.00,LWC V2.10 B1813,2013-04-18 08:23:00,
2013-04-18 04:28:00,29.4,27.6,30.36,WNW,283,0.0,0.0,93,0.00,,,0.00,LWC V2.10 B1813,2013-04-18 08:28:00,
2013-04-18 04:33:00,29.4,27.6,30.36,WNW,283,0.0,1.0,93,0.00,,,0.00,LWC V2.10 B1813,2013-04-18 08:33:00,
2013-04-18 04:38:00,29.6,27.8,30.36,WNW,283,0.0,0.0,93,0.00,,,0.00,LWC V2.10 B1813,2013-04-18 08:38:00,
2013-04-18 04:48:00,29.6,27.8,30.36,WNW,283,0.0,0.0,93,0.00,,,0.00,LWC V2.10 B1813,2013-04-18 08:48:00,
2013-04-18 04:53:00,29.5,27.7,30.36,WNW,283,0.0,0.0,93,0.00,,,0.00,LWC V2.10 B1813,2013-04-18 08:53:00,
2013-04-18 04:58:00,29.4,27.6,30.36,WNW,283,0.0,0.0,93,0.00,,,0.00,LWC V2.10 B1813,2013-04-18 08:58:00,
2013-04-18 05:03:00,29.6,27.8,30.36,WNW,290,0.0,0.0,93,0.00,,,0.00,LWC V2.10 B1813,2013-04-18 09:03:00,
2013-04-18 05:08:00,29.6,27.8,30.36,WNW,289,0.0,0.0,93,0.00,,,0.00,LWC V2.10 B1813,2013-04-18 09:08:00,
2013-04-18 05:13:00,29.4,27.6,30.35,WNW,290,0.0,0.0,93,0.00,,,0.00,LWC V2.10 B1813,2013-04-18 09:13:00,
2013-04-18 05:18:00,29.4,27.6,30.35,WNW,291,0.0,0.0,93,0.00,,,0.00,LWC V2.10 B1813,2013-04-18 09:18:00,
2013-04-18 05:23:00,29.3,27.5,30.35,WNW,291,0.0,0.0,93,0.00,,,0.00,LWC V2.10 B1813,2013-04-18 09:23:00,
2013-04-18 05:28:00,29.3,27.5,30.35,WNW,291,0.0,0.0,93,0.00,,,0.00,LWC V2.10 B1813,2013-04-18 09:28:00,
2013-04-18 05:33:00,29.3,27.5,30.35,NNE,19,0.0,0.0,93,0.00,,,0.00,LWC V2.10 B1813,2013-04-18 09:33:00,
2013-04-18 05:38:00,29.1,27.3,30.35,WNW,298,0.0,0.0,93,0.00,,,0.00,LWC V2.10 B1813,2013-04-18 09:38:00,
2013-04-18 05:43:00,29.1,27.3,30.35,WNW,298,0.0,0.0,93,0.00,,,0.00,LWC V2.10 B1813,2013-04-18 09:43:00,
2013-04-18 05:48:00,29.0,27.2,30.35,WNW,298,0.0,0.0,93,0.00,,,0.00,LWC V2.10 B1813,2013-04-18 09:48:00,
2013-04-18 05:53:00,29.0,27.5,30.35,WNW,298,0.0,0.0,94,0.00,,,0.00,LWC V2.10 B1813,2013-04-18 09:53:00,
2013-04-18 05:58:00,29.2,27.7,30.35,West,279,0.0,0.0,94,0.00,,,0.00,LWC V2.10 B1813,2013-04-18 09:58:00,
2013-04-18 06:03:00,29.3,27.5,30.36,WNW,291,0.0,1.0,93,0.00,,,0.00,LWC V2.10 B1813,2013-04-18 10:03:00,
2013-04-18 06:08:00,29.4,27.6,30.35,WNW,302,1.0,1.0,93,0.00,,,0.00,LWC V2.10 B1813,2013-04-18 10:08:00,
2013-04-18 06:13:00,29.4,27.6,30.36,WNW,300,0.0,1.0,93,0.00,,,0.00,LWC V2.10 B1813,2013-04-18 10:13:00,
2013-04-18 06:18:00,29.6,27.8,30.36,WNW,300,0.0,1.0,93,0.00,,,0.00,LWC V2.10 B1813,2013-04-18 10:18:00,
2013-04-18 06:23:00,29.6,27.8,30.35,WNW,300,0.0,0.0,93,0.00,,,0.00,LWC V2.10 B1813,2013-04-18 10:23:00,
2013-04-18 06:28:00,29.6,27.8,30.35,WNW,300,0.0,0.0,93,0.00,,,0.00,LWC V2.10 B1813,2013-04-18 10:28:00,
2013-04-18 06:33:00,29.7,27.9,30.36,WNW,300,0.0,0.0,93,0.00,,,0.00,LWC V2.10 B1813,2013-04-18 10:33:00,
2013-04-18 06:38:00,30.0,28.2,30.36,West,272,0.0,0.0,93,0.00,,,0.00,LWC V2.10 B1813,2013-04-18 10:38:00,
2013-04-18 06:43:00,30.5,28.7,30.37,WNW,287,0.0,0.0,93,0.00,,,0.00,LWC V2.10 B1813,2013-04-18 10:43:00,
2013-04-18 06:48:00,30.9,28.9,30.37,ENE,69,0.0,0.0,92,0.00,,,0.00,LWC V2.10 B1813,2013-04-18 10:48:00,
2013-04-18 06:53:00,31.4,29.4,30.38,ENE,68,0.0,0.0,92,0.00,,,0.00,LWC V2.10 B1813,2013-04-18 10:53:00,
2013-04-18 06:58:00,31.9,29.6,30.38,ENE,68,0.0,0.0,91,0.00,,,0.00,LWC V2.10 B1813,2013-04-18 10:58:00,
2013-04-18 07:03:00,32.4,30.1,30.38,West,276,0.0,0.0,91,0.00,,,0.00,LWC V2.10 B1813,2013-04-18 11:03:00,
2013-04-18 07:08:00,33.1,30.8,30.39,SE,140,0.0,0.0,91,0.00,,,0.00,LWC V2.10 B1813,2013-04-18 11:08:00,
2013-04-18 07:13:00,33.7,30.8,30.39,SE,140,0.0,0.0,89,0.00,,,0.00,LWC V2.10 B1813,2013-04-18 11:13:00,
2013-04-18 07:18:00,34.7,31.8,30.39,ESE,120,0.0,0.0,89,0.00,,,0.00,LWC V2.10 B1813,2013-04-18 11:18:00,
2013-04-18 07:23:00,35.5,32.0,30.39,ESE,120,0.0,0.0,87,0.00,,,0.00,LWC V2.10 B1813,2013-04-18 11:23:00,
2013-04-18 07:28:00,36.7,32.3,30.38,ESE,121,0.0,0.0,84,0.00,,,0.00,LWC V2.10 B1813,2013-04-18 11:28:00,
2013-04-18 07:33:00,37.2,31.9,30.39,ESE,121,0.0,0.0,81,0.00,,,0.00,LWC V2.10 B1813,2013-04-18 11:33:00,
2013-04-18 07:38:00,38.0,32.4,30.39,ESE,120,0.0,0.0,80,0.00,,,0.00,LWC V2.10 B1813,2013-04-18 11:38:00,
2013-04-18 07:43:00,39.3,32.7,30.38,SE,125,0.0,0.0,77,0.00,,,0.00,LWC V2.10 B1813,2013-04-18 11:43:00,
2013-04-18 07:48:00,40.4,33.8,30.38,ESE,113,0.0,0.0,77,0.00,,,0.00,LWC V2.10 B1813,2013-04-18 11:48:00,
2013-04-18 07:53:00,41.3,34.0,30.38,SE,131,0.0,0.0,75,0.00,,,0.00,LWC V2.10 B1813,2013-04-18 11:53:00,
2013-04-18 07:58:00,42.4,34.4,30.38,SE,131,0.0,0.0,73,0.00,,,0.00,LWC V2.10 B1813,2013-04-18 11:58:00,
2013-04-18 08:08:00,44.2,35.0,30.38,SE,131,0.0,0.0,70,0.00,,,0.00,LWC V2.10 B1813,2013-04-18 12:08:00,
2013-04-18 08:13:00,45.2,34.9,30.38,East,89,0.0,0.0,67,0.00,,,0.00,LWC V2.10 B1813,2013-04-18 12:13:00,
2013-04-18 08:18:00,45.9,34.8,30.37,East,85,0.0,0.0,65,0.00,,,0.00,LWC V2.10 B1813,2013-04-18 12:18:00,
2013-04-18 08:23:00,46.7,36.3,30.36,East,79,0.0,0.0,67,0.00,,,0.00,LWC V2.10 B1813,2013-04-18 12:23:00,
2013-04-18 08:28:00,47.3,32.4,30.36,ESE,102,2.0,3.0,56,0.00,,,0.00,LWC V2.10 B1813,2013-04-18 12:28:00,
2013-04-18 08:33:00,48.0,31.7,30.36,ESE,122,1.0,3.0,53,0.00,,,0.00,LWC V2.10 B1813,2013-04-18 12:33:00,
2013-04-18 08:38:00,48.5,30.2,30.35,ESE,115,2.0,3.0,49,0.00,,,0.00,LWC V2.10 B1813,2013-04-18 12:38:00,
2013-04-18 08:43:00,49.0,30.2,30.35,East,94,6.0,6.0,48,0.00,,,0.00,LWC V2.10 B1813,2013-04-18 12:43:00,
2013-04-18 08:48:00,49.2,29.8,30.34,SE,136,3.0,4.0,47,0.00,,,0.00,LWC V2.10 B1813,2013-04-18 12:48:00,
2013-04-18 08:53:00,49.0,30.2,30.35,South,180,2.0,4.0,48,0.00,,,0.00,LWC V2.10 B1813,2013-04-18 12:53:00,
2013-04-18 08:58:00,49.2,30.9,30.35,East,86,4.0,6.0,49,0.00,,,0.00,LWC V2.10 B1813,2013-04-18 12:58:00,
2013-04-18 09:03:00,49.6,32.2,30.35,ESE,123,0.0,6.0,51,0.00,,,0.00,LWC V2.10 B1813,2013-04-18 13:03:00,
2013-04-18 09:08:00,50.4,32.0,30.35,SE,140,1.0,6.0,49,0.00,,,0.00,LWC V2.10 B1813,2013-04-18 13:08:00,
2013-04-18 09:13:00,51.0,32.5,30.35,ENE,65,1.0,2.0,49,0.00,,,0.00,LWC V2.10 B1813,2013-04-18 13:13:00,
2013-04-18 09:18:00,51.6,31.5,30.35,ESE,121,1.0,4.0,46,0.00,,,0.00,LWC V2.10 B1813,2013-04-18 13:18:00,
2013-04-18 09:23:00,52.0,32.4,30.35,ESE,104,3.0,4.0,47,0.00,,,0.00,LWC V2.10 B1813,2013-04-18 13:23:00,
2013-04-18 09:28:00,52.8,32.1,30.34,SE,145,1.0,2.0,45,0.00,,,0.00,LWC V2.10 B1813,2013-04-18 13:28:00,
2013-04-18 09:33:00,53.2,31.3,30.34,ENE,61,0.0,5.0,43,0.00,,,0.00,LWC V2.10 B1813,2013-04-18 13:33:00,
2013-04-18 09:38:00,53.1,31.8,30.34,ENE,61,3.0,5.0,44,0.00,,,0.00,LWC V2.10 B1813,2013-04-18 13:38:00,
2013-04-18 09:43:00,53.2,31.9,30.34,SSE,166,5.0,9.0,44,0.00,,,0.00,LWC V2.10 B1813,2013-04-18 13:43:00,
2013-04-18 09:48:00,52.9,32.1,30.34,SSE,163,7.0,13.0,45,0.00,,,0.00,LWC V2.10 B1813,2013-04-18 13:48:00,
2013-04-18 09:58:00,53.3,33.1,30.33,ESE,117,9.0,14.0,46,0.00,,,0.00,LWC V2.10 B1813,2013-04-18 13:58:00,
2013-04-18 10:03:00,53.5,33.2,30.33,South,176,3.0,15.0,46,0.00,,,0.00,LWC V2.10 B1813,2013-04-18 14:03:00,
2013-04-18 10:08:00,54.0,33.7,30.33,SE,142,6.0,11.0,46,0.00,,,0.00,LWC V2.10 B1813,2013-04-18 14:08:00,
2013-04-18 10:13:00,54.1,34.3,30.33,ENE,72,1.0,10.0,47,0.00,,,0.00,LWC V2.10 B1813,2013-04-18 14:13:00,
2013-04-18 10:18:00,54.8,35.0,30.33,South,185,5.0,7.0,47,0.00,,,0.00,LWC V2.10 B1813,2013-04-18 14:18:00,
2013-04-18 10:23:00,55.3,34.9,30.33,ESE,117,7.0,9.0,46,0.00,,,0.00,LWC V2.10 B1813,2013-04-18 14:23:00,
2013-04-18 10:28:00,55.7,34.7,30.33,SE,131,5.0,10.0,45,0.00,,,0.00,LWC V2.10 B1813,2013-04-18 14:28:00,
2013-04-18 10:33:00,55.8,35.9,30.33,SE,127,2.0,4.0,47,0.00,,,0.00,LWC V2.10 B1813,2013-04-18 14:33:00,
2013-04-18 10:38:00,56.0,35.5,30.33,ESE,102,5.0,8.0,46,0.00,,,0.00,LWC V2.10 B1813,2013-04-18 14:38:00,
2013-04-18 10:43:00,56.5,36.0,30.33,ENE,76,9.0,11.0,46,0.00,,,0.00,LWC V2.10 B1813,2013-04-18 14:43:00,
2013-04-18 10:48:00,56.4,36.4,30.32,SE,135,6.0,11.0,47,0.00,,,0.00,LWC V2.10 B1813,2013-04-18 14:48:00,
2013-04-18 10:53:00,56.3,36.9,30.33,NE,48,4.0,10.0,48,0.00,,,0.00,LWC V2.10 B1813,2013-04-18 14:53:00,
2013-04-18 10:58:00,56.9,36.3,30.33,ESE,116,11.0,14.0,46,0.00,,,0.00,LWC V2.10 B1813,2013-04-18 14:58:00,
2013-04-18 11:03:00,56.3,35.2,30.32,East,92,7.0,12.0,45,0.00,,,0.00,LWC V2.10 B1813,2013-04-18 15:03:00,
2013-04-18 11:08:00,56.8,35.1,30.32,East,90,5.0,14.0,44,0.00,,,0.00,LWC V2.10 B1813,2013-04-18 15:08:00,
2013-04-18 11:13:00,56.3,34.7,30.32,SE,133,9.0,15.0,44,0.00,,,0.00,LWC V2.10 B1813,2013-04-18 15:13:00,
2013-04-18 11:18:00,56.1,35.1,30.32,ENE,67,3.0,7.0,45,0.00,,,0.00,LWC V2.10 B1813,2013-04-18 15:18:00,
2013-04-18 11:23:00,56.1,34.5,30.32,SE,133,2.0,10.0,44,0.00,,,0.00,LWC V2.10 B1813,2013-04-18 15:23:00,
2013-04-18 11:28:00,56.8,34.0,30.32,SE,136,8.0,13.0,42,0.00,,,0.00,LWC V2.10 B1813,2013-04-18 15:28:00,
2013-04-18 11:33:00,57.4,35.1,30.31,SSE,151,3.0,14.0,43,0.00,,,0.00,LWC V2.10 B1813,2013-04-18 15:33:00,
2013-04-18 11:38:00,57.2,35.5,30.30,East,89,4.0,5.0,44,0.00,,,0.00,LWC V2.10 B1813,2013-04-18 15:38:00,
2013-04-18 11:43:00,58.1,35.7,30.30,ESE,113,5.0,13.0,43,0.00,,,0.00,LWC V2.10 B1813,2013-04-18 15:43:00,
2013-04-18 11:48:00,58.0,36.2,30.30,ENE,73,8.0,12.0,44,0.00,,,0.00,LWC V2.10 B1813,2013-04-18 15:48:00,
2013-04-18 11:53:00,57.8,35.5,30.30,ENE,58,9.0,17.0,43,0.00,,,0.00,LWC V2.10 B1813,2013-04-18 15:53:00,
2013-04-18 11:58:00,57.7,34.8,30.30,ESE,113,7.0,12.0,42,0.00,,,0.00,LWC V2.10 B1813,2013-04-18 15:58:00,
2013-04-18 12:03:00,57.9,36.1,30.30,West,276,3.0,7.0,44,0.00,,,0.00,LWC V2.10 B1813,2013-04-18 16:03:00,
2013-04-18 12:08:00,57.9,35.5,30.28,SE,145,2.0,9.0,43,0.00,,,0.00,LWC V2.10 B1813,2013-04-18 16:08:00,
2013-04-18 12:13:00,58.0,36.2,30.28,East,87,4.0,6.0,44,0.00,,,0.00,LWC V2.10 B1813,2013-04-18 16:13:00,
2013-04-18 12:18:00,58.2,35.8,30.28,East,99,1.0,12.0,43,0.00,,,0.00,LWC V2.10 B1813,2013-04-18 16:18:00,
2013-04-18 12:23:00,58.2,35.8,30.27,SSE,151,2.0,10.0,43,0.00,,,0.00,LWC V2.10 B1813,2013-04-18 16:23:00,
2013-04-18 12:28:00,58.4,36.0,30.27,SW,227,5.0,10.0,43,0.00,,,0.00,LWC V2.10 B1813,2013-04-18 16:28:00,
2013-04-18 12:33:00,58.8,35.8,30.27,East,83,3.0,8.0,42,0.00,,,0.00,LWC V2.10 B1813,2013-04-18 16:33:00,
2013-04-18 12:38:00,59.0,36.5,30.27,SSE,152,0.0,7.0,43,0.00,,,0.00,LWC V2.10 B1813,2013-04-18 16:38:00,
2013-04-18 12:43:00,59.5,36.4,30.26,South,187,5.0,14.0,42,0.00,,,0.00,LWC V2.10 B1813,2013-04-18 16:43:00,
2013-04-18 12:48:00,59.3,36.2,30.26,NE,46,3.0,9.0,42,0.00,,,0.00,LWC V2.10 B1813,2013-04-18 16:48:00,
2013-04-18 12:53:00,59.5,36.4,30.26,East,95,2.0,4.0,42,0.00,,,0.00,LWC V2.10 B1813,2013-04-18 16:53:00,
2013-04-18 12:58:00,60.1,35.7,30.25,North,3,2.0,13.0,40,0.00,,,0.00,LWC V2.10 B1813,2013-04-18 16:58:00,
2013-04-18 13:03:00,60.4,36.0,30.25,SSE,163,5.0,14.0,40,0.00,,,0.00,LWC V2.10 B1813,2013-04-18 17:03:00,
2013-04-18 13:08:00,60.9,36.4,30.24,SW,224,1.0,8.0,40,0.00,,,0.00,LWC V2.10 B1813,2013-04-18 17:08:00,
2013-04-18 13:13:00,61.5,36.3,30.24,SSE,154,11.0,14.0,39,0.00,,,0.00,LWC V2.10 B1813,2013-04-18 17:13:00,
2013-04-18 13:18:00,61.3,36.1,30.24,NNE,16,0.0,7.0,39,0.00,,,0.00,LWC V2.10 B1813,2013-04-18 17:18:00,
2013-04-18 13:23:00,62.0,36.8,30.24,SSW,206,6.0,10.0,39,0.00,,,0.00,LWC V2.10 B1813,2013-04-18 17:23:00,
2013-04-18 13:28:00,62.3,37.0,30.24,South,180,6.0,6.0,39,0.00,,,0.00,LWC V2.10 B1813,2013-04-18 17:28:00,
2013-04-18 13:33:00,62.0,35.4,30.23,WNW,293,2.0,13.0,37,0.00,,,0.00,LWC V2.10 B1813,2013-04-18 17:33:00,
2013-04-18 13:38:00,61.9,36.7,30.23,ESE,123,2.0,8.0,39,0.00,,,0.00,LWC V2.10 B1813,2013-04-18 17:38:00,
2013-04-18 13:43:00,61.9,36.0,30.23,SE,126,5.0,13.0,38,0.00,,,0.00,LWC V2.10 B1813,2013-04-18 17:43:00,
2013-04-18 13:48:00,62.0,36.1,30.23,ENE,60,3.0,6.0,38,0.00,,,0.00,LWC V2.10 B1813,2013-04-18 17:48:00,
2013-04-18 13:53:00,62.1,36.2,30.23,NE,38,2.0,4.0,38,0.00,,,0.00,LWC V2.10 B1813,2013-04-18 17:53:00,
2013-04-18 13:58:00,62.3,36.4,30.23,NE,35,4.0,7.0,38,0.00,,,0.00,LWC V2.10 B1813,2013-04-18 17:58:00,
2013-04-18 14:03:00,62.0,34.7,30.22,East,92,3.0,9.0,36,0.00,,,0.00,LWC V2.10 B1813,2013-04-18 18:03:00,
2013-04-18 14:08:00,61.9,35.3,30.22,South,182,5.0,11.0,37,0.00,,,0.00,LWC V2.10 B1813,2013-04-18 18:08:00,
2013-04-18 14:13:00,62.1,35.5,30.22,ESE,103,6.0,9.0,37,0.00,,,0.00,LWC V2.10 B1813,2013-04-18 18:13:00,
2013-04-18 14:18:00,62.1,36.2,30.22,NE,51,4.0,10.0,38,0.00,,,0.00,LWC V2.10 B1813,2013-04-18 18:18:00,
2013-04-18 14:23:00,61.8,35.3,30.22,East,90,7.0,9.0,37,0.00,,,0.00,LWC V2.10 B1813,2013-04-18 18:23:00,
2013-04-18 14:28:00,61.8,35.9,30.21,SE,130,6.0,13.0,38,0.00,,,0.00,LWC V2.10 B1813,2013-04-18 18:28:00,
2013-04-18 14:33:00,61.8,35.9,30.21,ESE,115,9.0,11.0,38,0.00,,,0.00,LWC V2.10 B1813,2013-04-18 18:33:00,
2013-04-18 14:38:00,61.6,35.1,30.21,ESE,118,10.0,13.0,37,0.00,,,0.00,LWC V2.10 B1813,2013-04-18 18:38:00,
2013-04-18 14:43:00,61.5,35.7,30.21,North,350,2.0,11.0,38,0.00,,,0.00,LWC V2.10 B1813,2013-04-18 18:43:00,
2013-04-18 14:48:00,61.5,35.7,30.20,ESE,116,5.0,12.0,38,0.00,,,0.00,LWC V2.10 B1813,2013-04-18 18:48:00,
2013-04-18 14:53:00,61.5,36.3,30.20,SE,132,7.0,8.0,39,0.00,,,0.00,LWC V2.10 B1813,2013-04-18 18:53:00,
2013-04-18 14:58:00,61.3,35.5,30.20,ESE,108,1.0,4.0,38,0.00,,,0.00,LWC V2.10 B1813,2013-04-18 18:58:00,
2013-04-18 15:03:00,61.3,35.5,30.20,NE,35,1.0,4.0,38,0.00,,,0.00,LWC V2.10 B1813,2013-04-18 19:03:00,
2013-04-18 15:08:00,61.2,35.4,30.20,NE,47,2.0,21.0,38,0.00,,,0.00,LWC V2.10 B1813,2013-04-18 19:08:00,
2013-04-18 15:13:00,61.5,35.7,30.20,NE,35,2.0,12.0,38,0.00,,,0.00,LWC V2.10 B1813,2013-04-18 19:13:00,
2013-04-18 15:18:00,62.1,36.2,30.19,SSW,204,5.0,8.0,38,0.00,,,0.00,LWC V2.10 B1813,2013-04-18 19:18:00,
2013-04-18 15:23:00,62.3,36.4,30.19,East,82,2.0,7.0,38,0.00,,,0.00,LWC V2.10 B1813,2013-04-18 19:23:00,
2013-04-18 15:28:00,62.6,36.0,30.19,East,82,3.0,6.0,37,0.00,,,0.00,LWC V2.10 B1813,2013-04-18 19:28:00,
2013-04-18 15:33:00,62.7,36.0,30.19,North,356,1.0,3.0,37,0.00,,,0.00,LWC V2.10 B1813,2013-04-18 19:33:00,
2013-04-18 15:38:00,62.8,36.8,30.18,NNW,336,6.0,14.0,38,0.00,,,0.00,LWC V2.10 B1813,2013-04-18 19:38:00,
2013-04-18 15:43:00,62.3,35.0,30.18,SE,130,2.0,8.0,36,0.00,,,0.00,LWC V2.10 B1813,2013-04-18 19:43:00,
2013-04-18 15:48:00,61.9,35.3,30.18,East,97,7.0,9.0,37,0.00,,,0.00,LWC V2.10 B1813,2013-04-18 19:48:00,
2013-04-18 15:53:00,61.9,35.3,30.18,ESE,106,6.0,8.0,37,0.00,,,0.00,LWC V2.10 B1813,2013-04-18 19:53:00,
2013-04-18 15:58:00,61.8,35.3,30.18,ESE,122,7.0,7.0,37,0.00,,,0.00,LWC V2.10 B1813,2013-04-18 19:58:00,
2013-04-18 16:03:00,61.6,34.4,30.18,SE,137,1.0,6.0,36,0.00,,,0.00,LWC V2.10 B1813,2013-04-18 20:03:00,
2013-04-18 16:08:00,61.4,34.2,30.18,SE,138,9.0,9.0,36,0.00,,,0.00,LWC V2.10 B1813,2013-04-18 20:08:00,
2013-04-18 16:13:00,61.3,34.1,30.17,SSW,209,3.0,7.0,36,0.00,,,0.00,LWC V2.10 B1813,2013-04-18 20:13:00,
2013-04-18 16:18:00,61.3,34.8,30.18,SE,136,4.0,5.0,37,0.00,,,0.00,LWC V2.10 B1813,2013-04-18 20:18:00,
2013-04-18 16:23:00,61.3,34.8,30.18,NE,55,2.0,6.0,37,0.00,,,0.00,LWC V2.10 B1813,2013-04-18 20:23:00,
2013-04-18 16:28:00,61.1,33.9,30.17,ESE,102,2.0,7.0,36,0.00,,,0.00,LWC V2.10 B1813,2013-04-18 20:28:00,
2013-04-18 16:33:00,61.1,34.6,30.18,NNE,13,2.0,4.0,37,0.00,,,0.00,LWC V2.10 B1813,2013-04-18 20:33:00,
2013-04-18 16:38:00,60.8,34.4,30.18,West,269,1.0,3.0,37,0.00,,,0.00,LWC V2.10 B1813,2013-04-18 20:38:00,
2013-04-18 16:43:00,60.7,34.3,30.18,WNW,282,2.0,7.0,37,0.00,,,0.00,LWC V2.10 B1813,2013-04-18 20:43:00,
2013-04-18 16:48:00,60.5,33.4,30.18,SW,220,2.0,7.0,36,0.00,,,0.00,LWC V2.10 B1813,2013-04-18 20:48:00,
2013-04-18 16:53:00,60.3,33.9,30.18,ESE,120,7.0,8.0,37,0.00,,,0.00,LWC V2.10 B1813,2013-04-18 20:53:00,
2013-04-18 16:58:00,60.1,33.7,30.17,ESE,111,7.0,11.0,37,0.00,,,0.00,LWC V2.10 B1813,2013-04-18 20:58:00,
2013-04-18 17:03:00,60.0,33.7,30.17,ESE,114,2.0,7.0,37,0.00,,,0.00,LWC V2.10 B1813,2013-04-18 21:03:00,
2013-04-18 17:08:00,60.0,33.7,30.17,SE,134,3.0,4.0,37,0.00,,,0.00,LWC V2.10 B1813,2013-04-18 21:08:00,
2013-04-18 17:13:00,59.9,33.6,30.17,SSW,203,2.0,9.0,37,0.00,,,0.00,LWC V2.10 B1813,2013-04-18 21:13:00,
2013-04-18 17:18:00,59.9,34.2,30.17,SE,140,2.0,3.0,38,0.00,,,0.00,LWC V2.10 B1813,2013-04-18 21:18:00,
2013-04-18 17:23:00,59.9,33.6,30.17,South,180,0.0,8.0,37,0.00,,,0.00,LWC V2.10 B1813,2013-04-18 21:23:00,
2013-04-18 17:28:00,59.8,34.1,30.17,North,0,1.0,3.0,38,0.00,,,0.00,LWC V2.10 B1813,2013-04-18 21:28:00,
2013-04-18 17:33:00,59.7,33.4,30.17,East,101,5.0,10.0,37,0.00,,,0.00,LWC V2.10 B1813,2013-04-18 21:33:00,
2013-04-18 17:38:00,59.5,33.9,30.16,SSW,210,7.0,7.0,38,0.00,,,0.00,LWC V2.10 B1813,2013-04-18 21:38:00,
2013-04-18 17:48:00,59.3,33.7,30.16,East,94,1.0,5.0,38,0.00,,,0.00,LWC V2.10 B1813,2013-04-18 21:48:00,
2013-04-18 17:53:00,59.2,32.9,30.16,West,260,1.0,12.0,37,0.00,,,0.00,LWC V2.10 B1813,2013-04-18 21:53:00,
2013-04-18 17:58:00,59.1,33.5,30.15,East,95,1.0,6.0,38,0.00,,,0.00,LWC V2.10 B1813,2013-04-18 21:58:00,
2013-04-18 18:03:00,59.0,33.4,30.15,SSW,206,2.0,6.0,38,0.00,,,0.00,LWC V2.10 B1813,2013-04-18 22:03:00,
2013-04-18 18:08:00,58.9,33.3,30.15,ESE,102,1.0,3.0,38,0.00,,,0.00,LWC V2.10 B1813,2013-04-18 22:08:00,
2013-04-18 18:13:00,58.8,33.3,30.15,NE,43,1.0,2.0,38,0.00,,,0.00,LWC V2.10 B1813,2013-04-18 22:13:00,
2013-04-18 18:18:00,58.6,33.1,30.15,SSE,151,5.0,7.0,38,0.00,,,0.00,LWC V2.10 B1813,2013-04-18 22:18:00,
2013-04-18 18:23:00,58.4,32.9,30.15,East,95,5.0,5.0,38,0.00,,,0.00,LWC V2.10 B1813,2013-04-18 22:23:00,
2013-04-18 18:28:00,58.2,33.4,30.15,East,92,5.0,5.0,39,0.00,,,0.00,LWC V2.10 B1813,2013-04-18 22:28:00,
2013-04-18 18:33:00,58.0,32.5,30.15,SSW,211,4.0,12.0,38,0.00,,,0.00,LWC V2.10 B1813,2013-04-18 22:33:00,
2013-04-18 18:38:00,57.9,32.5,30.15,East,91,0.0,4.0,38,0.00,,,0.00,LWC V2.10 B1813,2013-04-18 22:38:00,
2013-04-18 18:43:00,57.7,32.3,30.14,SE,137,3.0,10.0,38,0.00,,,0.00,LWC V2.10 B1813,2013-04-18 22:43:00,
2013-04-18 18:48:00,57.5,32.1,30.14,WSW,242,3.0,8.0,38,0.00,,,0.00,LWC V2.10 B1813,2013-04-18 22:48:00,
2013-04-18 18:53:00,57.4,32.0,30.14,SSE,155,1.0,6.0,38,0.00,,,0.00,LWC V2.10 B1813,2013-04-18 22:53:00,
2013-04-18 18:58:00,57.2,31.8,30.14,SSE,158,4.0,6.0,38,0.00,,,0.00,LWC V2.10 B1813,2013-04-18 22:58:00,
2013-04-18 19:03:00,57.1,31.7,30.13,SW,225,4.0,5.0,38,0.00,,,0.00,LWC V2.10 B1813,2013-04-18 23:03:00,
2013-04-18 19:08:00,57.0,32.3,30.13,WSW,237,2.0,5.0,39,0.00,,,0.00,LWC V2.10 B1813,2013-04-18 23:08:00,
2013-04-18 19:13:00,56.9,32.2,30.13,West,279,3.0,7.0,39,0.00,,,0.00,LWC V2.10 B1813,2013-04-18 23:13:00,
2013-04-18 19:18:00,56.8,31.5,30.13,SE,129,1.0,9.0,38,0.00,,,0.00,LWC V2.10 B1813,2013-04-18 23:18:00,
2013-04-18 19:23:00,56.7,31.4,30.14,ESE,102,2.0,3.0,38,0.00,,,0.00,LWC V2.10 B1813,2013-04-18 23:23:00,
2013-04-18 19:28:00,56.7,32.0,30.14,SW,218,1.0,1.0,39,0.00,,,0.00,LWC V2.10 B1813,2013-04-18 23:28:00,
2013-04-18 19:33:00,56.6,31.9,30.13,WNW,300,1.0,4.0,39,0.00,,,0.00,LWC V2.10 B1813,2013-04-18 23:33:00,
2013-04-18 19:38:00,56.5,31.8,30.13,ESE,123,0.0,2.0,39,0.00,,,0.00,LWC V2.10 B1813,2013-04-18 23:38:00,
2013-04-18 19:43:00,56.5,31.8,30.13,SSE,159,1.0,5.0,39,0.00,,,0.00,LWC V2.10 B1813,2013-04-18 23:43:00,
2013-04-18 19:48:00,56.4,31.8,30.13,South,185,1.0,3.0,39,0.00,,,0.00,LWC V2.10 B1813,2013-04-18 23:48:00,
2013-04-18 19:53:00,56.3,31.7,30.13,East,82,1.0,4.0,39,0.00,,,0.00,LWC V2.10 B1813,2013-04-18 23:53:00,
2013-04-18 19:58:00,56.3,31.0,30.13,SW,220,3.0,5.0,38,0.00,,,0.00,LWC V2.10 B1813,2013-04-18 23:58:00,
2013-04-18 20:03:00,56.3,31.0,30.13,WSW,255,1.0,5.0,38,0.00,,,0.00,LWC V2.10 B1813,2013-04-19 00:03:00,
2013-04-18 20:08:00,56.2,30.9,30.13,SSW,203,1.0,4.0,38,0.00,,,0.00,LWC V2.10 B1813,2013-04-19 00:08:00,
2013-04-18 20:13:00,56.1,31.5,30.12,East,79,0.0,2.0,39,0.00,,,0.00,LWC V2.10 B1813,2013-04-19 00:13:00,
2013-04-18 20:18:00,56.0,30.8,30.13,WSW,251,3.0,6.0,38,0.00,,,0.00,LWC V2.10 B1813,2013-04-19 00:18:00,
2013-04-18 20:23:00,55.9,30.0,30.12,ESE,109,0.0,3.0,37,0.00,,,0.00,LWC V2.10 B1813,2013-04-19 00:23:00,
2013-04-18 20:28:00,55.8,29.9,30.12,NE,43,2.0,5.0,37,0.00,,,0.00,LWC V2.10 B1813,2013-04-19 00:28:00,
2013-04-18 20:33:00,55.7,29.8,30.12,West,262,3.0,12.0,37,0.00,,,0.00,LWC V2.10 B1813,2013-04-19 00:33:00,
2013-04-18 20:38:00,55.6,29.7,30.12,SSE,158,3.0,10.0,37,0.00,,,0.00,LWC V2.10 B1813,2013-04-19 00:38:00,
2013-04-18 20:43:00,55.5,29.7,30.11,SSW,208,5.0,13.0,37,0.00,,,0.00,LWC V2.10 B1813,2013-04-19 00:43:00,
2013-04-18 20:48:00,55.4,30.2,30.11,WNW,284,4.0,10.0,38,0.00,,,0.00,LWC V2.10 B1813,2013-04-19 00:48:00,
2013-04-18 20:53:00,55.3,30.1,30.11,SSE,168,9.0,14.0,38,0.00,,,0.00,LWC V2.10 B1813,2013-04-19 00:53:00,
2013-04-18 20:58:00,55.1,30.6,30.11,WSW,249,9.0,12.0,39,0.00,,,0.00,LWC V2.10 B1813,2013-04-19 00:58:00,
2013-04-18 21:03:00,55.0,30.5,30.11,SSW,203,7.0,14.0,39,0.00,,,0.00,LWC V2.10 B1813,2013-04-19 01:03:00,
2013-04-18 21:08:00,55.0,31.1,30.11,WSW,241,2.0,4.0,40,0.00,,,0.00,LWC V2.10 B1813,2013-04-19 01:08:00,
2013-04-18 21:13:00,54.9,31.0,30.10,NNW,342,0.0,10.0,40,0.00,,,0.00,LWC V2.10 B1813,2013-04-19 01:13:00,
2013-04-18 21:18:00,54.7,32.1,30.10,SSE,168,6.0,7.0,42,0.00,,,0.00,LWC V2.10 B1813,2013-04-19 01:18:00,
2013-04-18 21:23:00,54.7,32.1,30.10,WSW,244,5.0,11.0,42,0.00,,,0.00,LWC V2.10 B1813,2013-04-19 01:23:00,
2013-04-18 21:28:00,54.6,32.6,30.10,East,88,2.0,8.0,43,0.00,,,0.00,LWC V2.10 B1813,2013-04-19 01:28:00,
2013-04-18 21:33:00,54.5,33.6,30.10,SSE,155,2.0,5.0,45,0.00,,,0.00,LWC V2.10 B1813,2013-04-19 01:33:00,
2013-04-18 21:38:00,54.4,34.1,30.10,SSW,196,6.0,12.0,46,0.00,,,0.00,LWC V2.10 B1813,2013-04-19 01:38:00,
2013-04-18 21:43:00,54.3,34.5,30.10,ESE,121,2.0,6.0,47,0.00,,,0.00,LWC V2.10 B1813,2013-04-19 01:43:00,
2013-04-18 21:48:00,54.2,34.9,30.09,NW,311,1.0,3.0,48,0.00,,,0.00,LWC V2.10 B1813,2013-04-19 01:48:00,
2013-04-18 21:53:00,54.1,35.9,30.09,SSE,157,2.0,7.0,50,0.00,,,0.00,LWC V2.10 B1813,2013-04-19 01:53:00,
2013-04-18 21:58:00,54.0,36.3,30.10,ESE,111,4.0,6.0,51,0.00,,,0.00,LWC V2.10 B1813,2013-04-19 01:58:00,
2013-04-18 22:03:00,53.9,37.2,30.10,SSE,162,4.0,8.0,53,0.00,,,0.00,LWC V2.10 B1813,2013-04-19 02:03:00,
2013-04-18 22:08:00,53.8,37.5,30.10,SE,142,1.0,4.0,54,0.00,,,0.00,LWC V2.10 B1813,2013-04-19 02:08:00,
2013-04-18 22:13:00,53.7,37.9,30.10,South,186,2.0,2.0,55,0.00,,,0.00,LWC V2.10 B1813,2013-04-19 02:13:00,
2013-04-18 22:18:00,53.7,39.3,30.10,NE,48,2.0,2.0,58,0.00,,,0.00,LWC V2.10 B1813,2013-04-19 02:18:00,
2013-04-18 22:23:00,53.7,41.0,30.10,WNW,291,2.0,5.0,62,0.00,,,0.00,LWC V2.10 B1813,2013-04-19 02:23:00,
2013-04-18 22:28:00,53.6,42.1,30.10,South,189,3.0,15.0,65,0.00,,,0.00,LWC V2.10 B1813,2013-04-19 02:28:00,
2013-04-18 22:33:00,53.5,43.2,30.10,SW,224,3.0,6.0,68,0.00,,,0.00,LWC V2.10 B1813,2013-04-19 02:33:00,
2013-04-18 22:38:00,53.4,43.9,30.09,West,259,3.0,7.0,70,0.00,,,0.00,LWC V2.10 B1813,2013-04-19 02:38:00,
2013-04-18 22:43:00,53.2,44.0,30.09,South,191,8.0,12.0,71,0.00,,,0.00,LWC V2.10 B1813,2013-04-19 02:43:00,
2013-04-18 22:48:00,53.1,43.9,30.09,North,354,2.0,9.0,71,0.00,,,0.00,LWC V2.10 B1813,2013-04-19 02:48:00,
2013-04-18 22:53:00,53.0,44.2,30.09,SW,225,2.0,6.0,72,0.00,,,0.00,LWC V2.10 B1813,2013-04-19 02:53:00,
2013-04-18 22:58:00,52.9,44.5,30.09,SSW,196,5.0,7.0,73,0.00,,,0.00,LWC V2.10 B1813,2013-04-19 02:58:00,
2013-04-18 23:03:00,52.9,44.5,30.10,East,89,0.0,0.0,73,0.00,,,0.00,LWC V2.10 B1813,2013-04-19 03:03:00,
2013-04-18 23:08:00,52.8,44.4,30.10,West,259,0.0,2.0,73,0.00,,,0.00,LWC V2.10 B1813,2013-04-19 03:08:00,
2013-04-18 23:13:00,52.8,44.7,30.10,NE,37,1.0,2.0,74,0.00,,,0.00,LWC V2.10 B1813,2013-04-19 03:13:00,
2013-04-18 23:18:00,52.7,44.6,30.10,WNW,284,1.0,2.0,74,0.00,,,0.00,LWC V2.10 B1813,2013-04-19 03:18:00,
2013-04-18 23:23:00,52.7,45.0,30.10,SSW,199,6.0,6.0,75,0.00,,,0.00,LWC V2.10 B1813,2013-04-19 03:23:00,
2013-04-18 23:28:00,52.6,44.9,30.10,ENE,66,1.0,1.0,75,0.00,,,0.00,LWC V2.10 B1813,2013-04-19 03:28:00,
2013-04-18 23:33:00,52.5,44.8,30.09,East,99,1.0,1.0,75,0.00,,,0.00,LWC V2.10 B1813,2013-04-19 03:33:00,
2013-04-18 23:38:00,52.4,45.1,30.08,South,172,2.0,2.0,76,0.00,,,0.00,LWC V2.10 B1813,2013-04-19 03:38:00,
2013-04-18 23:43:00,52.4,45.1,30.08,ESE,110,0.0,1.0,76,0.00,,,0.00,LWC V2.10 B1813,2013-04-19 03:43:00,
2013-04-18 23:48:00,52.3,45.0,30.08,East,82,2.0,8.0,76,0.00,,,0.00,LWC V2.10 B1813,2013-04-19 03:48:00,
2013-04-18 23:53:00,52.3,45.0,30.08,SSE,163,1.0,2.0,76,0.00,,,0.00,LWC V2.10 B1813,2013-04-19 03:53:00,
2013-04-18 23:58:00,52.2,44.9,30.07,SW,228,7.0,7.0,76,0.00,,,0.00,LWC V2.10 B1813,2013-04-19 03:58:00,